Simultaneous Nadir Overpasses (SNOs) Predictions

Prediction of SNOs between AQUA and NOAA-19 Satellite Orbit:

Table of predicted SNOs for the next 14.0 days since TLE Epoch: 5/6/2018
Index Date (AQUA) Time (AQUA) Lat,Lon (AQUA) SZA (AQUA ) Date (NOAA-19) Time (NOAA-19) Lat,Lon (NOAA-19) SZA (NOAA-19 ) Distance(km) Time Diff (sec)
1 05/07/2018 16:05:02 -80.81, 80.41 114.17 05/07/2018 16:03:51 -80.82, 80.26 114.11 2.74 71
2 05/07/2018 16:54:30 80.83,-112.17 65.87 05/07/2018 16:54:50 80.82,-112.31 65.87 2.74 20
3 05/09/2018 22:28:12 -80.81, -15.44 114.76 05/09/2018 22:28:28 -80.82, -15.58 114.75 2.70 16
4 05/12/2018 04:01:56 80.82, 81.11 64.67 05/12/2018 04:02:03 80.82, 80.95 64.69 2.90 7
5 05/14/2018 09:35:38 -80.81, 177.80 115.90 05/14/2018 09:35:42 -80.82, 177.69 115.88 2.50 4
6 05/16/2018 15:09:22 80.82, -85.76 63.60 05/16/2018 15:09:16 80.81, -85.89 63.62 2.34 6




NCC Satellite Simultaneous Nadir Overpasses (SNOs) Prediction Service
